Regional Weather Roundup
Issued by NWS

Home | Current Version | Previous Version | Text Only | Print | Product List | Glossary Off
Versions: 1 2 3 4 5 6 7 8 9 10 11 12 13 14 15 16 17 18 19 20 21 22 23 24 25 26 27 28 29 30 31 32 33 34 35 36 37 38 39 40 41 42 43 44 45 46 47 48 49 50

000
ASUS43 KMPX 160001
RWRMN
WEATHER ROUNDUP FOR MINNESOTA
NATIONAL WEATHER SERVICE TWIN CITIES/CHANHASSEN MN
700 PM CDT TUE AUG 15 2017


NOTE: "FAIR" INDICATES FEW OR NO CLOUDS BELOW 12,000 FEET WITH NO
SIGNIFICANT WEATHER AND/OR OBSTRUCTIONS TO VISIBILITY. N/A MEANS
CURRENT SKY AND/OR WEATHER CONDITIONS ARE NOT AVAILABLE.

MNZ060>063-068>070-160100-
   Twin Cities Metro

CITY           SKY/WX    TMP DP  RH WIND       PRES   REMARKS
TWIN CITIES    CLOUDY    73  59  61 SE9       29.94F
6HR MIN TEMP:  72; 6HR MAX TEMP:  78;

ST PAUL        PTSUNNY   72  60  66 SE10      29.95F
CRYSTAL        CLOUDY    74  52  46 E9        29.93S
BLAINE         CLOUDY    75  57  53 E7        29.95S
LAKEVILLE      CLOUDY    68  61  77 E6        29.94F
EDEN PRAIRIE   CLOUDY    74  58  57 E9        29.93F
6HR MIN TEMP:  73; 6HR MAX TEMP:  78;

SOUTH ST PAUL  CLOUDY    73  60  63 SE5       29.95S
LAKE ELMO      FAIR      72  59  64 E6        29.97S
$$
MNZ001>005-007-008-013>017-022>024-027-028-160100-
   Northwest Minnesota

CITY           SKY/WX    TMP DP  RH WIND       PRES   REMARKS
BEMIDJI        MOSUNNY   73  58  57 S9        29.94F
HALLOCK        CLOUDY    73  63  68 SW7       29.90S
ROSEAU         CLOUDY    77  63  61 S3        29.92R
WARROAD        CLOUDY    73  66  78 SE3       29.92S
CROOKSTON      CLOUDY    73  59  60 S6        29.91S
FOSSTON        CLOUDY    72  59  64 SE6       29.94S
DETROIT LAKES  MOSUNNY   72  59  64 SE13      29.93F
MOORHEAD       PTSUNNY   72  61  68 SE8       29.90F
PARK RAPIDS    CLOUDY    73  59  61 SE6       29.94F
MAHNOMEN       CLOUDY    72  59  64 SE7       29.92S
$$
MNZ006-009>011-018-025>026-160100-
   North Central Minnesota

CITY           SKY/WX    TMP DP  RH WIND       PRES   REMARKS
BAUDETTE       CLOUDY    74  59  59 SE9       29.93R
FLAG ISLAND    CLOUDY    75  61  60 CALM      29.91S
INTL FALLS     SUNNY     74  57  55 SE8       29.94S
6HR MIN TEMP:  74; 6HR MAX TEMP:  80;

WASKISH        CLOUDY    73  61  64 S3        29.94S
BIG FORK       CLOUDY    73  61  64 CALM      29.96R
LONGVILLE      CLOUDY    70  61  73 CALM      29.96F
GRAND RAPIDS   CLOUDY    71  62  73 S5        29.99R
CRANE LAKE     SUNNY     77  57  50 CALM      29.97R
ORR            MOSUNNY   72  59  64 CALM      29.95
COOK             N/A     72  61  68 SE3       29.98R
WALKER         FAIR      71  59  65 S5        29.95F
$$
MNZ012-019>021-037-160100-
   Northeast Minnesota

CITY           SKY/WX    TMP DP  RH WIND       PRES   REMARKS
DULUTH         MOSUNNY   67  59  75 E8        30.00S
6HR MIN TEMP:  67; 6HR MAX TEMP:  71;

ELY            SUNNY     72  52  49 SE9       30.00R
HIBBING        SUNNY     70  56  61 S5        29.98R
EVELETH        SUNNY     70  48  45 SE5       30.00S
DULUTH HARBOR  SUNNY     66  63  88 NE14      30.00R
GRAND MARAIS     N/A     63  59  87 SW3       30.03R
$$
MNZ029>031-032-039>041-046>048-054>057-064-160100-
   West Central Minnesota

CITY           SKY/WX    TMP DP  RH WIND       PRES   REMARKS
FERGUS FALLS   CLOUDY    72  57  60 SE9       29.90S
WHEATON        CLOUDY    70  59  68 E9        29.88F
MORRIS         CLOUDY    70  61  73 SE8       29.89F
ALEXANDRIA     CLOUDY    69  58  67 SE10      29.94F
ELBOW LAKE     CLOUDY    70  61  72 E7        29.92S
WADENA         CLOUDY    70  59  68 SE8       29.93F
GLENWOOD       CLOUDY    70  59  68 E8        29.93F
APPLETON       PTSUNNY   72  61  68 SE8       29.88F
BENSON         PTSUNNY   72  61  68 S7        29.92F
ORTONVILLE     PTSUNNY   70  61  73 MISG      29.87F
MADISON        PTSUNNY   72  63  73 SE12      29.88F
WILLMAR        FAIR      72  63  73 SE6       29.93F
$$
MNZ033>034-036-042>043-049>051-058-059-160100-
   Central Minnesota

CITY           SKY/WX    TMP DP  RH WIND       PRES   REMARKS
ST CLOUD       CLOUDY    72  59  63 E5        29.94F
6HR MIN TEMP:  72; 6HR MAX TEMP:  78;

SAUK CENTRE    FAIR      69  59  69 E5        29.93F
PAYNESVILLE    CLOUDY    71  59  65 E6        29.94S
AITKIN         CLOUDY    72  61  68 S3        29.96S
PINE RIVER     CLOUDY    70  57  64 SE3       29.98F
BRAINERD       PTSUNNY   71  60  68 SE5       29.96F
STAPLES        CLOUDY    70  59  68 CALM      29.94F
LONG PRAIRIE   FAIR      68  61  77 NE3       29.94F
LITTLE FALLS   CLOUDY    68  59  73 CALM      29.95F
LITCHFIELD     PTSUNNY   72  61  68 SE6       29.94S
BUFFALO        CLOUDY    73  56  57 SE3       29.95S
MAPLE LAKE     CLOUDY    73  61  65 SE3       29.95S
HUTCHINSON     CLOUDY    70  63  78 SE5       29.94F
$$
MNZ037-044-045-052-053-160100-
   East Central Minnesota

CITY           SKY/WX    TMP DP  RH WIND       PRES   REMARKS
PRINCETON      CLOUDY    73  59  60 E5        29.95F
MORA           PTSUNNY   70  59  68 CALM      29.99S
RUSH CITY      MOSUNNY   71  62  72 CALM      29.97F
MOOSE LAKE     CLOUDY    70  61  73 NE3       29.97R
HINCKLEY       FAIR      72  61  68 CALM      29.97S
CLOQUET        CLOUDY    66  57  72 E5        30.00R
MCGREGOR       CLOUDY    72  61  68 SE5       29.98S
$$
MNZ071>073-080-081-089-090-097-098-160100-
   Southwest Minnesota

CITY           SKY/WX    TMP DP  RH WIND       PRES   REMARKS
MONTEVIDEO     PTSUNNY   70  61  73 S8        29.90F
GRANITE FALLS  PTSUNNY   70  63  77 E7        29.91F
CANBY          CLOUDY    69  63  80 CALM      29.88F
MARSHALL       CLOUDY    67  62  84 SE13      29.88F
REDWOOD FALLS  PTSUNNY   69  62  78 SE7       29.90F
OLIVIA         CLOUDY    70  61  73 E7        29.91F
PIPESTONE      CLOUDY    68  63  83 SE8       29.86F
WINDOM         CLOUDY    66  61  82 E6        29.92S
WORTHINGTON    CLOUDY    66  63  90 E10       29.89F
JACKSON        CLOUDY    64  61  88 E3        29.92F
TRACY          CLOUDY    67  64  90 E8        29.90F
SLAYTON        CLOUDY    66  58  76 E7        29.92F
$$
MNZ065>067-074>077-082>085-091>093-160100-
   South Central Minnesota

CITY           SKY/WX    TMP DP  RH WIND       PRES   REMARKS
MANKATO        CLOUDY    69  63  81 SE8       29.93F
NEW ULM        CLOUDY    68  61  77 SE9       29.92F
ST JAMES       CLOUDY    66  63  88 E6        29.93F
FAIRMONT       CLOUDY    67  63  87 SE8       29.92F
GLENCOE        PTSUNNY   71  64  78 SE5       29.93F
FARIBAULT      CLOUDY    70  61  73 E8        29.95F
OWATONNA       PTSUNNY   70  61  73 SE9       29.95F
WASECA         PTSUNNY   68  61  77 SE7       29.96F
ALBERT LEA     CLOUDY    70  64  83 E8        29.95S
$$
MNZ078>079-086>088-094>096-160100-
   Southeast Minnesota

CITY           SKY/WX    TMP DP  RH WIND       PRES   REMARKS
ROCHESTER      CLOUDY    67  61  81 SE7       29.96F
6HR MIN TEMP:  67; 6HR MAX TEMP:  70;

RED WING       CLOUDY    73  59  60 E3        29.94F
STANTON        PTSUNNY   71  61  71 E3        29.93F
DODGE CENTER   CLOUDY    66  59  77 SE7       29.97S
WINONA         PTSUNNY   72  61  68 CALM      29.95F
AUSTIN         CLOUDY    64  61  88 E5        29.95F
PRESTON        CLOUDY    67  60  78 E3        29.97F
$$
ABBREVIATIONS USED IN REMARKS
   TC - TEMPERATURES IN CELSIUS
  WCI - WIND CHILL INDEX
   HX - HEAT INDEX
  VSB - VISIBILITY
$$




USA.gov is the U.S. government's official web portal to all federal, state and local government web resources and services.